Regional Weather Roundup
Issued by NWS Green Bay, WI

Home | Current Version | Previous Version | Text Only | Print | Product List | Glossary On
Versions: 1 2 3 4 5 6 7 8 9 10 11 12 13 14 15 16 17 18 19 20 21 22 23 24 25 26 27 28 29 30 31 32 33 34 35 36 37 38 39 40 41 42 43 44 45 46 47 48 49 50
000
ASUS43 KGRB 312310
RWRGRB

NORTH-CENTRAL AND NORTHEAST WISCONSIN REGIONAL WEATHER ROUNDUP
NATIONAL WEATHER SERVICE GREEN BAY WI
600 PM CDT FRI OCT 31 2014

WIZ005-009-010>012-018-019-010000-
NORTH CENTRAL WISCONSIN

CITY           SKY/WX    TMP DP  RH WIND       PRES   REMARKS
IRONWOOD       MOCLDY    30  21  69 N3        30.45S
MANITOWISH WTR MOCLDY    28  21  76 N3        30.44R
ARBOR VITAE    CLOUDY    32  24  72 N7        30.43R
EAGLE RIVER    CLOUDY    29  21  73 N7        30.41S
LAND O LAKES   CLOUDY    30  23  76 N7        30.42S
RHINELANDER    CLOUDY    30  20  66 N5        30.42R
PHILLIPS       PTCLDY    29  20  67 N7        30.44S
ANTIGO         PTCLDY    29  17  61 N9        30.41R
TOMAHAWK       CLOUDY    31  22  69 NW6       30.43S
MERRILL        PTCLDY    31  20  64 N8        30.42S
$$

WIZ013-073-010000-
NORTHEAST WISCONSIN

CITY           SKY/WX    TMP DP  RH WIND       PRES   REMARKS
IRON MOUNTAIN  CLOUDY    32  16  51 N13       30.40R
MARINETTE      MOCLDY    34  19  55 NE14G20   30.40R
OCONTO         MOCLDY    33  21  61 N9        30.40R
$$

WIZ017-030-035>037-045-010000-
CENTRAL WISCONSIN

CITY           SKY/WX    TMP DP  RH WIND       PRES   REMARKS
MEDFORD        CLOUDY    31  20  64 N10       30.43R
WAUSAU         PTCLDY    33  18  53 N9        30.41R
MOSINEE        PTCLDY    32  19  59 N12       30.43R
MARSHFIELD     PTCLDY    34  19  54 N7        30.42R
WISC RAPIDS    PTCLDY    34  17  50 N14       30.44R
STEVENS POINT  PTCLDY    32  16  51 N10G17    30.42R
WAUPACA        CLEAR     36  17  44 N9G18     30.41R
SHAWANO        CLOUDY    37  19  49 N12G18    30.41R
CLINTONVILLE   MOCLDY    34  18  51 N12G18    30.41R
$$

WIZ038-039-048-051-010000-
FOX VALLEY

CITY           SKY/WX    TMP DP  RH WIND       PRES   REMARKS
NWS GREEN BAY  MOCLDY    35  20  54 N18G28    30.39R
APPLETON       MOCLDY    36  18  48 N17       30.38R
OSHKOSH        MOCLDY    36  20  52 N13       30.38R
FOND DU LAC    MOCLDY    36  18  48 N17G26    30.38R
$$

WIZ022-050-052-010000-
EAST CENTRAL WISCONSIN

CITY           SKY/WX    TMP DP  RH WIND       PRES   REMARKS
STURGEON BAY   CLOUDY    36  19  51 N22G30    30.38R
MANITOWOC      CLOUDY    36  21  54 N13G24    30.37R
SHEBOYGAN      MOCLDY    35  18  49 N10G23    30.36R
$$

LMZ563-521-522-541>543-010000-
LAKESHORE

STATION/POSITION TIME  TEMP    WIND        PRES    VSBY  WAVE
                       AIR SEA DIR/SP/G                  HT/PER
                 (UTC) (F)     (DEG/KT/KT) (MB)    (MI)  (FT/S)
SHEBOYGAN LKSHOR 2300   37 47   10/ 31/ 33 1028.7R
KEWAUNEE LKSHORE 2300   36     360/ 12/ 20 1027.2R
NORTHPORT PIER   2300   37     360/ 28/ 34 1028.4R
N MID LAKE BUOY  2300   36 47  360/ 25/ 33 1027.8R         8/ 7
CHAMBERS ISLAND  2300   37     330/ 25/ 33 1028.4S
MENOMINEE LKSHOR 2300   36     350/ 25/ 31 1029.6S
$$



USA.gov is the U.S. government's official web portal to all federal, state and local government web resources and services.